Regional Weather Roundup
Issued by NWS

Home | Current Version | Previous Version | Graphics & Text | Print | Product List | Glossary On
Versions: 1 2 3 4 5 6 7 8 9 10 11 12 13 14 15 16 17 18 19 20 21 22 23 24 25 26 27
000
ASUS45 KTFX 241310
RWRMT
MONTANA REGIONAL WEATHER ROUNDUP
NATIONAL WEATHER SERVICE GREAT FALLS MT
700 AM MDT WED AUG 24 2016

NOTE: "FAIR" INDICATES FEW OR NO CLOUDS BELOW 12000 FEET WITH NO
SIGNIFICANT WEATHER AND/OR OBSTRUCTIONS TO VISIBILITY.

MTZ001>007-043-241400-
WEST OF THE DIVIDE

CITY           SKY/WX    TMP DP  RH WIND       PRES   REMARKS
KALISPELL      MOCLDY    57  43  59 N16       30.27R
MISSOULA       MOCLDY    49  45  86 CALM      30.29R
BUTTE          CLOUDY    38  31  76 CALM      30.34R
MULLAN PASS    CLEAR     48  36  63 E8        30.32R
DEER LODGE       N/A     52  39  62 CALM      30.36R
EUREKA           N/A     48  43  81 CALM      30.31R
HAMILTON         N/A     45  36  70 CALM      30.28R
LIBBY            N/A     43  39  87 CALM      30.30R
$$

MTZ008-052>055-241400-
SOUTHWEST MONTANA

CITY           SKY/WX    TMP DP  RH WIND       PRES   REMARKS
BOZEMAN        CLOUDY    43  38  82 SE6       30.32R
DILLON         CLEAR     42  35  76 E7        30.30R
W YELLOWSTONE  CLOUDY    27  19  74 CALM      30.32R HAZE
ENNIS          CLEAR     41  34  75 SE8       30.35R
THREE FORKS      N/A     48  48 100 CALM      30.27R
TWIN BRIDGES     N/A     49  36  61 N12       30.24R
$$

MTZ009-010-012-014-046-048-049-054-241400-
EAST SLOPES AND CENTRAL MONTANA

CITY           SKY/WX    TMP DP  RH WIND       PRES   REMARKS
CUT BANK       CLOUDY    48  44  86 NW14      30.32S
GREAT FALLS    CLOUDY    51  44  77 W8        30.32R
MALMSTROM AFB  MOCLDY    53  45  74 W14       30.31R
HELENA         CLOUDY    57  43  59 N12       30.33R
CHOTEAU          N/A     52  43  71 N14       30.34R
$$

MTZ011-013-016-021-045-047-050-051-241400-
NORTH CENTRAL MONTANA

CITY           SKY/WX    TMP DP  RH WIND       PRES   REMARKS
HAVRE          CLOUDY    53  48  83 NW12      30.23R
LEWISTOWN      CLOUDY    54  45  71 W15       30.27R
N BAR RANCH    CLOUDY    52  45  76 NW10G16   30.26S
CHINOOK          N/A     55  45  67 W13       30.20R
$$

MTZ017>020-022>027-061-062-241400-
NORTHEAST MONTANA

CITY           SKY/WX    TMP DP  RH WIND       PRES   REMARKS
GLASGOW        CLOUDY    54  44  69 NW26G39   30.10R
JORDAN           N/A     59  48  67 W20G28    30.14R
SIDNEY         MOCLDY    58  50  75 W16G24    30.02R
WOLF POINT     CLOUDY    58  46  64 W18G30    30.06R
POPLAR           N/A     57  46  67 NW17G26   30.04R
$$

MTZ028>42-056>058-241400-
SOUTHCENTRAL AND SOUTHEAST MONTANA

CITY           SKY/WX    TMP DP  RH WIND       PRES   REMARKS
BAKER          CLEAR     52  46  80 W14       30.14R
BILLINGS       PTCLDY    53  43  68 W6        30.24R
LIVINGSTON     MOCLDY    47  39  74 W8        30.30S
MILES CITY     CLEAR     56  46  69 W10       30.16R
FORSYTH          N/A     55  46  71 W10       30.18S
LAUREL           N/A     48  40  74 CALM      30.21R
ROUNDUP          N/A     53  42  66 MISG      30.13R
$$

REGIONAL REPORTS...DAKOTAS

CITY           SKY/WX    TMP DP  RH WIND       PRES   REMARKS
WILLISTON      MOCLDY    56  50  80 W9        29.98S
MINOT          SUNNY     59  50  72 SW13      29.90F
DICKINSON      CLEAR     53  48  83 W17       30.04R
CROSBY         CLOUDY    54  52  94 W20       29.96R
BISMARCK       SUNNY     58  50  75 W16       29.99S
GRAND FORKS    MOSUNNY   59  53  80 W9        29.82R
FARGO          SUNNY     61  51  70 W10       29.87S
BUFFALO SD       N/A     53  47  79 W16       30.07S
RAPID CITY     CLOUDY    57  43  59 NW16      30.17R
$$

REGIONAL REPORTS...WYOMING/IDAHO/WASHINGTON

CITY           SKY/WX    TMP DP  RH WIND       PRES   REMARKS
GILLETTE       CLEAR     49  43  80 NW8       30.24R
SHERIDAN       CLEAR     51  41  68 NW12      30.26R
BUFFALO WY     CLEAR     50  38  63 NW9       30.27R
CODY           CLEAR     48  37  66 CALM      30.29R
YELLOWSTONE LA   N/A     30  24  78 CALM      30.34S
IDAHO FALLS    CLOUDY    36  28  73 N5        30.19R SMOKE
SALMON         CLEAR     39  32  75 CALM      30.26R
BOISE          CLEAR     53  38  56 S3        30.14R
SPOKANE        PTCLDY    58  45  62 NE7       30.21R
$$

REGIONAL REPORTS...ALBERTA

CITY           SKY/WX    TMP DP  RH WIND       PRES   REMARKS
EDMONTON       MOCLDY    50  46  87 W8        30.26R
CALGARY        PTCLDY    48  43  81 NW6       30.34S
LETHBRIDGE     PTCLDY    45  43  93 W9        30.32R
WATERTON GATE    N/A     46  45  93 S2          N/A
CARDSTON         N/A     48  45  87 W3          N/A
MILK RIVER       N/A     48  46  93 NW12        N/A
$$

REGIONAL REPORTS...SASKATCHEWAN

CITY           SKY/WX    TMP DP  RH WIND       PRES   REMARKS
SWIFT CURRENT  LGT RAIN  48  48 100 NW18G26   30.05R FOG
REGINA         LGT RAIN  54  52  94 NW18G28   29.88R
SASKATOON      LGT RAIN  52  52 100 N14G21    30.06R
CYPRESS HILLS    N/A     45  41  87 NW9G21      N/A
VAL MARIE        N/A     50  43  76 NW20G29     N/A
ROCKGLEN         N/A     48  46  93 NW17G24     N/A
$$




USA.gov is the U.S. government's official web portal to all federal, state and local government web resources and services.